FENGYUN 1C DEB, 36204

Orbit data source: Space-Track

FENGYUN 1C DEB, 36204 is space debris in SSO originally from a launch on Mon, 10 May 1999 UTC launched from the Taiyaun Space Center, China (TSC). Fengyun 1C debris stems from the Chinese weather satellite Fengyun-1C, which was intentionally destroyed by a Chinese anti-satellite missile in 2007. This event dramatically increased the amount of space debris, with thousands of trackable fragments posing hazards to satellites and human spaceflight. The Fengyun 1C debris cloud has become a focal point in discussions about space sustainability and the need for international regulations to prevent the creation of new debris.

Loading next visibility...
Identifier
36204, 1999-025DUD
Orbit
SSO
Country
Flag of CNCN / PRC
Related business
Manufacturer
Unknown
Mission
Spacecraft
Bus & Motor
Unknown
Mass
Unknown
Launch date (UTC)
1999-05-10 (27 years ago)
Launch vehicle
Unknown
Launch site
Taiyaun Space Center, China (TSC)
Object type
Payload
Rocket body
Debris
Shape & HBR
Unknown shape, 0.1 m
Radar Cross Section
Small (<0.1 m²)

Expand to show TLE details & history
Last TLE update: 1 day ago

TLE from 1 day ago
0 FENGYUN 1C DEB
1 36204U 99025DUD 26237.58160083  .00002074  00000-0  72854-3 0  9993
2 36204  99.3010 359.2051 0020083 139.5133 220.7549 14.36063303980984
Epoch: 2026-08-25T13:57Z
TLE epoch observation values (Epoch: 2026-08-25T13:57:30.311Z)
Latitude
-0.00002°
Longitude
175.98192°
Altitude
785.343 km
Speed
7.455 km/s
True Right ascension
23h 56m 49s
True Declination
0° 00' 00"
Sunlit
Object was in full shadow at epoch
Visualization orbit readout
Latitude
Unknown
Longitude
Unknown
Altitude
Unknown
Speed
Unknown
Apparent Right ascension
Unknown
Apparent Declination
Unknown
Sunlit
N/A
Visualization observer readout
Local Sidereal Time
06:22:07
Azimuth
Unknown
Elevation
Unknown
Doppler factor
Unknown
Orbital elements
Apogee altitude
783.055 km
Perigee altitude
754.349 km
Semi-major axis
7,146.839 km
Eccentricity
0.00201
Inclination
99.301°
RAAN
359.2051°
Arg. of periapsis
139.5133°
True anomaly
220.60495°
Mean anomaly
220.7549°
Eccentric anomaly
220.6799°
Mean motion
3.5923 °/min
Orbital period
100.21 mins
BSTAR
0.00072854
Loading maneuver chart data...
Computing Atmospheric mass density...

Documentation

Showing up to 5 results
|